Location: Killam
(52.7910°N, 111.8608°W)
Time: 22:16:49
(UTC+00:00)

Vanguard 3 - Pass Details

Date: 24 February 2026
Orbit: 507 x 3205 km, 33.4° (Epoch: 11 March)

Event Time Altitude Azimuth Distance (km) Brightness Sun altitude
Rises 02:00:30 0° 255° (WSW) 4,875 13.0 -10.5°
Reaches altitude 10° 02:08:29 10° 215° (SW) 2,967 10.5 -11.7°
Maximum altitude 02:08:47 10° 212° (SSW) 2,930 10.5 -11.8°
Drops below altitude 10° 02:09:05 10° 210° (SSW) 2,898 10.4 -11.8°
Sets 02:14:44 0° 163° (SSE) 3,212 10.0 -12.7°
